Location: The Saddle
(36.8333°N, 80.3417°W)
Time: 07:50:25
(UTC-04:00)

Vanguard 2 Rocket - Pass Details

Date: 08 February 2023
Orbit: 555 x 3316 km, 32.9° (Epoch: 27 March)

Event Time Altitude Azimuth Distance (km) Brightness Sun altitude
Rises 08:55:55 0° 243° (WSW) 4,964 10.4 16.8°
Reaches altitude 10° 09:00:01 10° 238° (WSW) 3,509 9.7 17.5°
Maximum altitude 09:07:39 45° 169° (S) 1,265 8.5 18.8°
Drops below altitude 10° 09:12:25 10° 97° (E) 2,195 10.1 19.5°
Sets 09:14:28 0° 90° (E) 2,955 10.4 19.9°
